This is the latest recevied weather packets stored in our database for station/object KF0ZH. If no packets are shown the sender has not sent any weather packets the latest 10 day(s).
| Time | Temp. | Humidity | Pressure | Rain* | Wind** | Luminosity | Snow |
|---|---|---|---|---|---|---|---|
| 1787778726 | 25.56° C | 63% | 1013.2 hPa | 0 mm | 1.34 m/s, 278° | - | - |
| 1787778423 | 25.56° C | 64% | 1013.2 hPa | 0 mm | 0 m/s | - | - |
| 1787778123 | 25.56° C | 63% | 1013.2 hPa | 0 mm | 1.34 m/s, 315° | - | - |
| 1787777823 | 26.11° C | 63% | 1013.2 hPa | 0 mm | 0 m/s | - | - |
| 1787777524 | 26.11° C | 61% | 1013.2 hPa | 0 mm | 1.79 m/s, 313° | - | - |
| 1787777223 | 26.11° C | 62% | 1013.2 hPa | 0 mm | 4.02 m/s, 286° | - | - |
| 1787776923 | 26.11° C | 62% | 1013.3 hPa | 0 mm | 2.68 m/s, 312° | - | - |
| 1787776623 | 25.56° C | 63% | 1013.2 hPa | 0 mm | 3.13 m/s, 272° | - | - |
| 1787776323 | 25.56° C | 64% | 1013.3 hPa | 0 mm | 3.13 m/s, 319° | - | - |
| 1787776023 | 25° C | 65% | 1013.2 hPa | 0 mm | 2.24 m/s, 330° | - | - |
| 1787775724 | 25° C | 66% | 1013.2 hPa | 0 mm | 0 m/s | - | - |
| 1787775423 | 25° C | 66% | 1013.2 hPa | 0 mm | 1.79 m/s, 14° | - | - |
| 1787775125 | 25° C | 64% | 1013.2 hPa | 0 mm | 2.68 m/s, 355° | - | - |
| 1787774823 | 25° C | 65% | 1013.3 hPa | 0 mm | 0 m/s | - | - |
| 1787774524 | 24.44° C | 67% | 1013.3 hPa | 0 mm | 0.45 m/s, 322° | - | - |
| 1787774223 | 25° C | 66% | 1013.3 hPa | 0 mm | 1.79 m/s, 326° | - | - |
| 1787773923 | 25° C | 67% | 1013.4 hPa | 0 mm | 3.58 m/s, 312° | - | - |
| 1787773624 | 25° C | 68% | 1013.4 hPa | 0 mm | 2.68 m/s, 337° | - | - |
| 1787773323 | 24.44° C | 68% | 1013.3 hPa | 0 mm | 2.24 m/s, 331° | - | - |
| 1787773023 | 24.44° C | 68% | 1013.3 hPa | 0 mm | 2.24 m/s, 303° | - | - |
| 1787772723 | 24.44° C | 67% | 1013.2 hPa | 0 mm | 1.34 m/s, 334° | - | - |
| 1787772423 | 24.44° C | 69% | 1013.3 hPa | 0 mm | 3.13 m/s, 319° | - | - |
| 1787772123 | 24.44° C | 69% | 1013.2 hPa | 0 mm | 3.58 m/s, 334° | - | - |
| 1787771823 | 24.44° C | 70% | 1013.2 hPa | 0 mm | 3.13 m/s, 333° | - | - |
| 1787771523 | 24.44° C | 69% | 1013.3 hPa | 0 mm | 2.24 m/s, 309° | - | - |
* Rain latest hour (hover to see other rain measurements)
** Current wind speed in m/s (hover to see current wind gust speed)